Thermal, CA

9:06 PM PST on February 18, 2018 (GMT -0800)
Desert Resorts Regional

Weather History for KTRM - December, 2012

Change the Weather History Date:

Saturday, December 8, 2012

  Actual Average Record
Temperature  
Mean Temperature 58 °F 53 °F  
Max Temperature 79 °F 71 °F 87 °F (1975)
Min Temperature 37 °F 36 °F 25 °F (1998)
Degree Days  
Heating Degree Days 7 12  
Month to date heating degree days 10 88  
Since 1 July heating degree days 107 255  
Cooling Degree Days 0 0  
Month to date cooling degree days 6 0  
Year to date cooling degree days 4282 3686  
Growing Degree Days 8 (Base 50)    
Moisture  
Dew Point 32 °F    
Average Humidity 42    
Maximum Humidity 70    
Minimum Humidity 14    
Precipitation  
Precipitation 0.00 in 0.01 in 0.26 in (1991)
Month to date precipitation T 0.08  
Year to date precipitation 2.40 2.93  
Since 1 July precipitation 2.04  
Snow  
Snow 0.00 in - - ()
Month to date snowfall 0.0  
Year to date snowfall 0.0  
Snow Depth 0.00 in    
Sea Level Pressure  
Sea Level Pressure 29.89 in    
Wind  
Wind Speed 2 mph (NNW)    
Max Wind Speed 12 mph    
Max Gust Speed 13 mph    
Visibility 10 miles    
Events      
T = Trace of Precipitation, MM = Missing Value Source: NWS Daily Summary

Daily Weather History Graph

Daily Weather History Graph

Search for Another Location

Airport or City:

Trip Planner

Search our weather history database for the weather conditions in past years. The results will help you decide how hot, cold, wet, or windy it might be!

Date:

Astronomy

Dec. 08, 2012 Rise Set
Actual Time 6:37 AM PST 4:36 PM PST
Civil Twilight 6:09 AM PST 5:03 PM PST
Nautical Twilight 5:38 AM PST 5:34 PM PST
Astronomical Twilight 5:08 AM PST 6:05 PM PST
Moon 1:18 AM PST (12/8) 12:58 PM PST (12/8)
Length of Visible Light 10h 54m
Length of Day
9h 59m
Waning Crescent, 27% of the Moon is Illuminated
Dec 8
Waning Crescent
Dec 13
New
Dec 19
First Quarter
Dec 28
Full
Jan 4
Last Quarter

Hourly Weather History & Observations

Time (PST) Temp. Windchill Dew Point Humidity Pressure Visibility Wind Dir Wind Speed Gust Speed Precip Events Conditions
12:52 AM 43.0 °F 41.3 °F 33.1 °F 68% 29.90 in 10.0 mi West 3.5 mph - N/A   Clear
1:52 AM 52.0 °F - 30.0 °F 43% 29.90 in 10.0 mi North 8.1 mph - N/A   Clear
2:52 AM 44.1 °F - 33.1 °F 65% 29.90 in 10.0 mi Calm Calm - N/A   Clear
3:52 AM 48.0 °F - 30.0 °F 50% 29.89 in 10.0 mi NNW 6.9 mph - N/A   Clear
4:52 AM 39.9 °F - 30.0 °F 68% 29.89 in 10.0 mi Calm Calm - N/A   Clear
5:52 AM 42.1 °F 39.2 °F 28.9 °F 60% 29.91 in 10.0 mi NNE 4.6 mph - N/A   Clear
6:52 AM 39.9 °F 36.7 °F 28.9 °F 65% 29.91 in 10.0 mi WNW 4.6 mph - N/A   Clear
7:52 AM 48.0 °F - 35.1 °F 61% 29.93 in 10.0 mi West 3.5 mph - N/A   Clear
8:52 AM 59.0 °F - 35.1 °F 41% 29.94 in 10.0 mi Calm Calm - N/A   Clear
9:52 AM 66.9 °F - 28.0 °F 23% 29.95 in 10.0 mi Calm Calm - N/A   Clear
10:52 AM 71.1 °F - 28.0 °F 20% 29.92 in 10.0 mi Calm Calm - N/A   Clear
11:52 AM 73.9 °F - 28.0 °F 18% 29.88 in 10.0 mi Calm Calm - N/A   Clear
12:52 PM 77.0 °F - 26.1 °F 15% 29.86 in 10.0 mi Calm Calm - N/A   Clear
1:52 PM 78.1 °F - 27.0 °F 15% 29.84 in 10.0 mi South 3.5 mph - N/A   Clear
2:52 PM 77.0 °F - 25.0 °F 15% 29.83 in 10.0 mi SE 4.6 mph - N/A   Clear
4:52 PM 61.0 °F - 34.0 °F 36% 29.83 in 10.0 mi SSE 3.5 mph - N/A   Clear
5:52 PM 54.0 °F - 37.0 °F 53% 29.85 in 10.0 mi NNE 3.5 mph - N/A   Clear
6:52 PM 51.1 °F - 37.0 °F 59% 29.86 in 10.0 mi Calm Calm - N/A   Clear
7:52 PM 50.0 °F - 37.9 °F 63% 29.88 in 10.0 mi NW 3.5 mph - N/A   Clear
8:52 PM 46.0 °F 44.8 °F 35.1 °F 66% 29.90 in 10.0 mi North 3.5 mph - N/A   Clear
9:52 PM 46.0 °F - 35.1 °F 66% 29.91 in 10.0 mi Calm Calm - N/A   Clear
10:52 PM 50.0 °F - 33.1 °F 52% 29.91 in 10.0 mi North 3.5 mph - N/A   Clear
11:52 PM 43.0 °F - 34.0 °F 71% 29.91 in 10.0 mi Calm Calm - N/A   Clear